DECAYED

RESURS P1 DEB, 60219 (Decayed)

Orbit data source: Space-Track

RESURS P1 DEB, 60219 was space debris in LEO originally from a Commonwealth of Independent States-origin launch on Tue, 25 Jun 2013 UTC launched from the Tyuratam Missile And Space Complex (TTMTR). Debris objects in space refer to the collection of defunct objects orbiting the Earth. Examples of debris include non-operational satellites, rocket bodies, and fragments generated from explosions, collisions, or faulty payload assembly.

Not visible in the next 10 days
RESURS P1 DEB details
Identifier
60219, 2013-030H
Orbit
Decayed
Last TLE update6 months ago
Origin
Flag of CISTSSKBP? (CIS)
ManufacturerTSSKBP?
MissionDecayed spacecraft
Bus & MotorUnknown
MassUnknown
Launch date (UTC)
2013-06-25 (11 years ago)
Launch vehicleUnknown
Launch site
Tyuratam Missile And Space Complex (TTMTR)
Object type
Payload
Rocket body
Debris
Shape & HBRUnknown
Radar Cross SectionSmall (<0.1 m²)

Expand to show TLE details & history

TLE from 6 months ago
0 RESURS P1 DEB
1 60219U 13030H   24187.54205134  .15613003  22207-5  30324-2 0  9992
2 60219  96.9583 237.8832 0017224 251.4674 108.4751 16.31324103  1391
Epoch: 2024-07-05T13:00Z
Definitive object data (Epoch: 2024-07-05T13:00:33.235Z)
Latitude-0.00004°
Longitude118.72741°
Altitude195.839 km
Speed7.787 km/s
True Right ascension15h 51m 31s
True Declination0° 00' 00"
Sunlit
Object was in full shadow at TLE epoch
Visualization observer readout
Observer readout values are unavailable because the object's trajectory could not be propagated. This is usually caused when the trajectory data is faulty or the object's orbit has decayed.
Visualization observer readout
Observer readout values are unavailable because the object's trajectory could not be propagated. This is usually caused when the trajectory data is faulty or the object's orbit has decayed.
Orbital elements
Apogee altitude197.089 km
Perigee altitude174.478 km
Semi-major axis6,563.92 km
Eccentricity0.0017224
Inclination96.9583°
RAAN237.8832°
Arg. of periapsis251.4674°
True anomaly108.66217°
Mean anomaly108.4751°
Eccentric anomaly108.56865°
Mean motion4.0813 °/min
BSTAR0.0030324
Orbital period88.21 mins
Loading maneuver chart data...

RESURS P1 DEB Visibility forecast

Observer location: undefined°, undefined

This satellite is decayed
Span
Click to sort rows by Start time (UTC) header in descending order
Start Az.
Max El. time (UTC)
Max El. Az.
Max El.
End time (UTC)
End Az.
|